TimeEST,TemperatureF,Dew PointF,Humidity,Sea Level PressureIn,VisibilityMPH,Wind Direction,Wind SpeedMPH,Gust SpeedMPH,PrecipitationIn,Events,Conditions,WindDirDegrees,DateUTC
12:53 AM,44.1,30.0,58,30.27,10.0,SW,3.5,-,N/A,,Clear,220,2011-11-25 05:53:00
1:53 AM,35.6,30.2,81,30.27,10.0,Calm,Calm,-,N/A,,Clear,0,2011-11-25 06:53:00
2:53 AM,42.8,30.2,61,30.27,10.0,SW,4.6,-,N/A,,Clear,230,2011-11-25 07:53:00
3:53 AM,33.1,28.9,85,30.26,10.0,Calm,Calm,-,N/A,,Clear,0,2011-11-25 08:53:00
4:53 AM,35.1,28.9,78,30.28,10.0,Calm,Calm,-,N/A,,Clear,0,2011-11-25 09:53:00
5:53 AM,44.1,27.0,51,30.27,10.0,Calm,Calm,-,N/A,,Clear,0,2011-11-25 10:53:00
6:53 AM,35.1,28.9,78,30.29,10.0,Calm,Calm,-,N/A,,Clear,0,2011-11-25 11:53:00
7:53 AM,39.0,28.0,65,30.30,10.0,WSW,3.5,-,N/A,,Clear,250,2011-11-25 12:53:00
8:53 AM,52.0,27.0,38,30.29,10.0,Calm,Calm,-,N/A,,Clear,0,2011-11-25 13:53:00
9:53 AM,57.0,30.0,36,30.28,10.0,WSW,4.6,-,N/A,,Clear,240,2011-11-25 14:53:00
11:53 AM,68.0,21.0,17,30.24,10.0,South,5.8,-,N/A,,Clear,190,2011-11-25 16:53:00
12:53 PM,70.0,26.1,19,30.22,10.0,South,5.8,-,N/A,,Clear,170,2011-11-25 17:53:00
2:53 PM,72.0,16.0,12,30.17,10.0,SW,6.9,-,N/A,,Clear,220,2011-11-25 19:53:00
3:53 PM,69.8,17.6,14,30.18,10.0,Variable,4.6,-,N/A,,Clear,0,2011-11-25 20:53:00
4:53 PM,66.9,28.0,23,30.19,10.0,South,4.6,-,N/A,,Clear,190,2011-11-25 21:53:00
5:53 PM,64.9,28.0,25,30.19,10.0,Calm,Calm,-,N/A,,Clear,0,2011-11-25 22:53:00
6:53 PM,60.1,26.1,27,30.20,10.0,Calm,Calm,-,N/A,,Clear,0,2011-11-25 23:53:00
7:53 PM,59.0,16.0,19,30.20,10.0,Calm,Calm,-,N/A,,Clear,0,2011-11-26 00:53:00
8:53 PM,55.0,26.1,33,30.20,10.0,Calm,Calm,-,N/A,,Clear,0,2011-11-26 01:53:00
9:53 PM,46.4,24.8,43,30.21,10.0,SE,3.5,-,N/A,,Clear,140,2011-11-26 02:53:00
10:53 PM,46.9,21.9,37,30.21,10.0,Calm,Calm,-,N/A,,Clear,0,2011-11-26 03:53:00
11:53 PM,48.2,19.4,32,30.21,10.0,SW,3.5,-,N/A,,Clear,220,2011-11-26 04:53:00